DW0326 Weather Reports


Display with metric or nautical units.
time (UTC)temp
F
wind
direction
speed
MPH
gust
MPH
rain 1hr
in
rain 24hr
in
rain mn
in
humidity
%
barometer
mb
20260509211629 92 9 0.0 7.0 0.00 0.00 0.00 64 1003.3
20260509205828 92 14 0.0 9.0 0.00 0.00 0.00 63 1003.4
20260509204030 91 3 0.0 7.0 0.00 0.00 0.00 64 1003.8
20260509203128 91 0 0.0 0.0 0.00 0.00 0.00 65 1003.8
20260509202228 91 0 0.0 0.0 0.00 0.00 0.00 65 1003.9
20260509201328 90 0 0.0 0.0 0.00 0.00 0.00 65 1003.9
20260509200428 90 0 0.0 0.0 0.00 0.01 0.00 67 1004.0
20260509195529 90 353 0.0 6.0 0.00 0.01 0.00 68 1004.3
20260509194629 89 351 0.0 6.0 0.00 0.01 0.00 69 1004.3
20260509193728 89 33 0.0 6.0 0.00 0.01 0.00 68 1004.3
20260509191929 89 36 0.0 7.0 0.00 0.01 0.00 69 1004.4
20260509190129 88 0 0.0 0.0 0.00 0.01 0.00 71 1004.4
20260509185228 88 0 0.0 0.0 0.00 0.01 0.00 68 1004.7
20260509183428 88 0 0.0 0.0 0.00 0.01 0.00 71 1004.9
20260509182528 88 0 0.0 0.0 0.00 0.01 0.00 74 1005.4
20260509181628 87 175 0.0 6.0 0.00 0.01 0.00 74 1005.4
20260509180728 86 204 1.0 9.0 0.00 0.01 0.00 74 1005.5
20260509175828 86 194 1.0 9.0 0.00 0.03 0.00 76 1005.5
20260509174929 86 183 3.0 11.0 0.00 0.04 0.00 78 1005.5
20260509174028 85 192 2.0 10.0 0.00 0.04 0.00 80 1006.0
20260509173129 84 199 1.0 7.0 0.00 0.04 0.00 82 1006.0
20260509172229 83 212 1.0 9.0 0.00 0.04 0.00 83 1006.3
20260509171328 83 230 1.0 8.0 0.00 0.04 0.00 84 1006.3
20260509170429 82 313 0.0 5.0 0.00 0.04 0.00 86 1006.4
20260509165529 82 0 0.0 0.0 0.00 0.04 0.00 86 1006.3
20260509164628 82 0 0.0 0.0 0.00 0.04 0.00 86 1006.3
20260509162828 81 0 0.0 0.0 0.00 0.04 0.00 88 1006.2
20260509161928 81 0 0.0 0.0 0.00 0.04 0.00 89 1006.2
20260509161028 81 0 0.0 0.0 0.00 0.04 0.00 88 1006.1
20260509160128 80 0 0.0 0.0 0.00 0.04 0.00 88 1006.1
20260509154328 79 0 0.0 0.0 0.00 0.04 0.00 90 1006.0
20260509153429 79 0 0.0 0.0 0.00 0.04 0.00 92 1006.0
20260509152529 79 0 0.0 0.0 0.00 0.04 0.00 94 1006.1
20260509151629 78 0 0.0 0.0 0.00 0.05 0.00 93 1006.1
20260509145829 77 0 0.0 0.0 0.00 0.05 0.00 95 1006.0
20260509144929 77 0 0.0 0.0 0.00 0.05 0.00 96 1005.7
20260509144028 77 0 0.0 0.0 0.00 0.05 0.00 97 1005.6
20260509143129 77 0 0.0 0.0 0.00 0.05 0.00 97 1005.6
20260509142228 77 0 0.0 0.0 0.00 0.05 0.00 98 1005.4
20260509141329 76 0 0.0 0.0 0.00 0.05 0.00 98 1005.4
20260509135529 76 0 0.0 0.0 0.00 0.05 0.00 98 1005.6
20260509134628 76 0 0.0 0.0 0.00 0.05 0.00 99 1005.6
20260509133728 76 0 0.0 0.0 0.00 0.05 0.00 100 1006.5
20260509132828 76 0 0.0 0.0 0.00 0.05 0.00 100 1006.5
20260509131928 76 0 0.0 0.0 0.00 0.05 0.00 100 1006.4
20260509131029 76 0 0.0 0.0 0.00 0.05 0.00 100 1006.2
20260509130128 76 0 0.0 0.0 0.00 0.05 0.00 100 1006.2
20260509125228 75 0 0.0 0.0 0.00 0.05 0.00 100 1006.0
20260509124328 75 0 0.0 0.0 0.00 0.05 0.00 100 1006.0
20260509123429 75 0 0.0 0.0 0.00 0.05 0.00 100 1006.0
20260509122529 75 0 0.0 0.0 0.00 0.05 0.00 100 1006.0
20260509121628 75 0 0.0 0.0 0.00 0.05 0.00 100 1006.0
20260509120728 75 0 0.0 0.0 0.00 0.05 0.00 100 1005.5
20260509115828 75 0 0.0 0.0 0.00 0.05 0.00 100 1005.5
20260509114929 75 0 0.0 0.0 0.00 0.05 0.00 100 1005.8
20260509114028 75 0 0.0 0.0 0.00 0.05 0.00 99 1006.1
20260509113128 75 0 0.0 0.0 0.00 0.05 0.00 99 1006.1
20260509112229 75 0 0.0 0.0 0.00 0.05 0.00 99 1005.9
20260509111328 75 0 0.0 0.0 0.00 0.05 0.00 99 1005.9
20260509110429 75 0 0.0 0.0 0.00 0.05 0.00 99 1005.4
20260509105528 75 0 0.0 0.0 0.00 0.05 0.00 99 1005.2
20260509103728 75 0 0.0 0.0 0.00 0.05 0.00 99 1005.4
20260509102828 75 0 0.0 0.0 0.00 0.05 0.00 99 1005.4
20260509101928 75 0 0.0 0.0 0.00 0.05 0.00 99 1005.3
20260509101028 75 0 0.0 0.0 0.00 0.05 0.00 99 1005.1
20260509100128 75 0 0.0 0.0 0.00 0.05 0.00 99 1005.1
20260509095228 75 0 0.0 0.0 0.00 0.05 0.00 99 1005.0
20260509094328 75 0 0.0 0.0 0.00 0.05 0.00 99 1005.0
20260509093428 75 0 0.0 0.0 0.00 0.05 0.00 99 1005.0
20260509092529 75 0 0.0 0.0 0.00 0.05 0.00 99 1005.2
20260509091628 75 0 0.0 0.0 0.00 0.05 0.00 99 1005.2
20260509090729 75 0 0.0 0.0 0.00 0.05 0.00 99 1005.1
20260509085828 75 0 0.0 0.0 0.00 0.05 0.00 99 1005.1
20260509084029 75 0 0.0 0.0 0.00 0.05 0.00 99 1005.0
20260509083128 75 0 0.0 0.0 0.00 0.05 0.00 99 1005.0
20260509082228 75 0 0.0 0.0 0.00 0.05 0.00 99 1005.2
20260509081329 75 0 0.0 0.0 0.00 0.05 0.00 99 1005.2
20260509080428 75 0 0.0 0.0 0.00 0.05 0.00 99 1005.0
20260509075528 75 0 0.0 0.0 0.00 0.05 0.00 99 1005.2
20260509073728 75 0 0.0 0.0 0.00 0.05 0.00 98 1005.4
20260509072829 75 0 0.0 0.0 0.00 0.05 0.00 98 1005.4
20260509071028 76 0 0.0 0.0 0.00 0.05 0.00 98 1005.7
20260509070128 76 0 0.0 0.0 0.00 0.05 0.00 98 1005.7
20260509065229 76 0 0.0 0.0 0.00 0.05 0.00 98 1005.5
20260509062528 76 0 0.0 0.0 0.00 0.05 0.00 98 1005.7
20260509061628 76 0 0.0 0.0 0.00 0.05 0.00 98 1005.7
20260509055828 76 0 0.0 0.0 0.00 0.05 0.00 98 1005.9
20260509054928 76 0 0.0 0.0 0.00 0.05 0.00 98 1005.9
20260509054029 75 0 0.0 0.0 0.00 0.05 0.00 98 1006.0
20260509053128 75 0 0.0 0.0 0.00 0.05 0.00 98 1006.0
20260509052228 75 0 0.0 0.0 0.00 0.05 0.00 98 1005.9
20260509051328 75 0 0.0 0.0 0.00 0.05 0.00 98 1005.9
20260509050428 75 0 0.0 0.0 0.00 0.05 0.00 98 1006.0
20260509045528 75 0 0.0 0.0 0.00 0.05 0.05 97 1006.0
20260509044628 75 0 0.0 0.0 0.00 0.05 0.05 97 1006.0
20260509043728 75 0 0.0 0.0 0.00 0.05 0.05 97 1006.0
20260509042828 75 0 0.0 0.0 0.00 0.05 0.05 97 1006.0
20260509041928 75 0 0.0 0.0 0.00 0.05 0.05 97 1006.0
20260509041028 75 0 0.0 0.0 0.00 0.05 0.05 97 1005.8
20260509040128 75 0 0.0 0.0 0.00 0.05 0.05 97 1005.8
20260509035228 75 0 0.0 0.0 0.00 0.05 0.05 97 1005.6
20260509034328 75 0 0.0 0.0 0.00 0.05 0.05 97 1005.6
20260509033428 75 0 0.0 0.0 0.00 0.05 0.05 97 1005.5
20260509032528 74 0 0.0 0.0 0.00 0.05 0.05 97 1005.5
20260509031628 74 0 0.0 0.0 0.00 0.05 0.05 97 1005.5
20260509030728 74 0 0.0 0.0 0.00 0.05 0.05 97 1005.5
20260509024028 74 0 0.0 0.0 0.00 0.05 0.05 97 1005.4
20260509023129 74 0 0.0 0.0 0.00 0.05 0.05 97 1005.4
20260509022228 74 81 1.0 5.0 0.00 0.05 0.05 97 1004.9
20260509021328 74 80 0.0 6.0 0.00 0.05 0.05 97 1004.9
20260509020428 74 0 0.0 0.0 0.00 0.05 0.05 97 1004.9
20260509015528 74 0 0.0 0.0 0.00 0.05 0.05 97 1004.7
20260509013728 74 0 0.0 0.0 0.00 0.05 0.05 96 1004.9
20260509012828 74 0 0.0 0.0 0.00 0.05 0.05 96 1004.9
20260509011928 74 0 0.0 0.0 0.00 0.05 0.05 96 1004.9
20260509003428 74 85 1.0 7.0 0.00 0.05 0.05 96 1004.7
20260509001628 74 0 0.0 0.0 0.00 0.05 0.05 96 1004.5
20260509000728 74 0 0.0 0.0 0.00 0.05 0.05 96 1004.6
20260508235828 74 0 0.0 0.0 0.00 0.05 0.05 97 1004.6
20260508234928 74 0 0.0 0.0 0.00 0.05 0.05 97 1004.9
20260508233128 74 0 0.0 0.0 0.00 0.05 0.05 97 1005.2
20260508232228 74 0 0.0 0.0 0.00 0.05 0.05 97 1004.9
20260508231329 74 0 0.0 0.0 0.00 0.05 0.05 97 1004.9
20260508230427 74 0 0.0 0.0 0.00 0.05 0.05 97 1004.9
20260508225528 74 0 0.0 0.0 0.00 0.05 0.05 97 1004.9
20260508224628 74 0 0.0 0.0 0.00 0.05 0.05 97 1004.9
20260508223728 73 0 0.0 0.0 0.00 0.05 0.05 97 1004.9
20260508222829 73 0 0.0 0.0 0.00 0.05 0.05 97 1004.9
20260508221929 73 0 0.0 0.0 0.00 0.05 0.05 98 1005.0
20260508221028 73 0 0.0 0.0 0.00 0.05 0.05 98 1004.9
20260508220127 73 0 0.0 0.0 0.00 0.05 0.05 99 1004.9
20260508215229 73 0 0.0 0.0 0.00 0.05 0.05 99 1005.2
20260508214328 73 0 0.0 0.0 0.00 0.05 0.05 99 1005.2
20260508213428 73 0 0.0 0.0 0.00 0.05 0.05 99 1005.4
20260508212528 72 0 0.0 0.0 0.00 0.05 0.05 99 1005.5